Weather History for Bozeman, MT

Change the Weather History Date:

Sunday, December 2, 2012

  Actual Average Record
Temperature  
Mean Temperature 44 °F 24 °F  
Max Temperature 59 °F 36 °F 59 °F (2012)
Min Temperature 28 °F 12 °F -14 °F (1978)
Degree Days  
Heating Degree Days 21    
Month to date heating degree days 42  
Since 1 July heating degree days 1938  
Cooling Degree Days 0    
Month to date cooling degree days 0  
Year to date cooling degree days 284  
Moisture  
Dew Point 31 °F    
Average Humidity 66    
Maximum Humidity 96    
Minimum Humidity 36    
Precipitation  
Precipitation 0.14 in 0.02 in 0.22 in (1951)
Month to date precipitation 0.22 0.04  
Year to date precipitation 8.87 13.51  
Snow  
Snow T in 0.30 in 4.00 in (1972)
Month to date snowfall T 0.5  
Since 1 July snowfall 10.5 7.9  
Snow Depth 0.00 in    
Sea Level Pressure  
Sea Level Pressure 29.50 in    
Wind  
Wind Speed 9 mph (SSW)    
Max Wind Speed 35 mph    
Max Gust Speed 46 mph    
Visibility 10 miles    
Events Rain , Snow    
T = Trace of Precipitation, MM = Missing Value Source: NWS Daily Summary

Daily Weather History Graph

Daily Weather History Graph

Search for Another Location

Airport:

Trip Planner

Search our weather history database for the weather conditions in past years. The results will help you decide how hot, cold, wet, or windy it might be!

Date:

Astronomy

Dec. 02, 2012 Rise Set
Actual Time 7:47 AM MST 4:41 PM MST
Civil Twilight 7:13 AM MST 5:15 PM MST
Nautical Twilight 6:36 AM MST 5:52 PM MST
Astronomical Twilight 6:00 AM MST 6:28 PM MST
Moon 8:37 PM MST (12/2) 10:34 AM MST (12/2)
Length of Visible Light 10h 01m
Length of Day
8h 54m
Waning Gibbous, 85% of the Moon is Illuminated
Dec 2
Waning Gibbous
Dec 6
Last Quarter
Dec 13
New
Dec 19
First Quarter
Dec 28
Full

Hourly Weather History & Observations

Time (MST) Temp. Windchill Dew Point Humidity Pressure Visibility Wind Dir Wind Speed Gust Speed Precip Events Conditions
12:56 AM 37.0 °F - 28.9 °F 73% 29.70 in 10.0 mi Calm Calm - N/A   Overcast
1:56 AM 41.0 °F - 30.0 °F 65% 29.64 in 10.0 mi Calm Calm - N/A   Overcast
2:56 AM 42.1 °F 37.7 °F 28.9 °F 60% 29.60 in 10.0 mi SSE 6.9 mph - N/A   Partly Cloudy
3:56 AM 39.9 °F 37.8 °F 30.0 °F 68% 29.57 in 10.0 mi Variable 3.5 mph - N/A   Clear
4:56 AM 48.2 °F - 28.4 °F 46% 29.53 in 10.0 mi East 5.8 mph - N/A   Scattered Clouds
5:56 AM 44.1 °F 42.5 °F 30.9 °F 60% 29.46 in 10.0 mi Variable 3.5 mph - N/A   Overcast
6:56 AM 51.1 °F - 30.9 °F 46% 29.41 in 10.0 mi SE 4.6 mph - N/A   Mostly Cloudy
7:56 AM 52.0 °F - 30.9 °F 45% 29.39 in 10.0 mi SSW 6.9 mph - N/A   Mostly Cloudy
8:56 AM 51.8 °F - 32.0 °F 47% 29.39 in 10.0 mi South 11.5 mph - N/A   Clear
9:56 AM 51.1 °F - 32.0 °F 48% 29.36 in 10.0 mi South 6.9 mph - N/A   Scattered Clouds
10:56 AM 53.6 °F - 32.0 °F 44% 29.38 in 10.0 mi Calm Calm - N/A   Mostly Cloudy
11:56 AM 52.0 °F - 35.1 °F 53% 29.34 in 10.0 mi NE 9.2 mph - N/A   Mostly Cloudy
12:56 PM 53.1 °F - 35.1 °F 50% 29.29 in 10.0 mi North 3.5 mph - N/A   Mostly Cloudy
1:36 PM 57.2 °F - 33.8 °F 41% 29.29 in 10.0 mi SSE 16.1 mph 25.3 mph N/A   Scattered Clouds
1:56 PM 57.0 °F - 33.1 °F 40% 29.24 in 10.0 mi South 6.9 mph - N/A   Scattered Clouds
2:56 PM 57.9 °F - 30.0 °F 35% 29.24 in 10.0 mi SSW 26.5 mph 36.8 mph N/A   Clear
3:56 PM 55.9 °F - 30.9 °F 39% 29.27 in 10.0 mi SW 23.0 mph 40.3 mph N/A   Clear
4:56 PM 51.8 °F - 33.8 °F 50% 29.34 in 10.0 mi SW 31.1 mph 43.7 mph N/A   Mostly Cloudy
5:42 PM 37.4 °F 25.4 °F 33.8 °F 87% 29.46 in 6.0 mi NW 27.6 mph 42.6 mph 0.01 in Rain Light Rain
5:53 PM 37.4 °F 27.2 °F 33.8 °F 87% 29.50 in 9.0 mi NW 19.6 mph 31.1 mph 0.02 in Rain Light Rain
5:56 PM 37.9 °F 28.2 °F 34.0 °F 86% 29.52 in 9.0 mi NW 18.4 mph 26.5 mph 0.02 in Rain Light Rain
6:18 PM 35.6 °F 26.6 °F 32.0 °F 87% 29.54 in 5.0 mi NNW 13.8 mph - 0.06 in Rain Rain
6:39 PM 35.6 °F - 32.0 °F 87% 29.58 in 6.0 mi Calm Calm - 0.10 in Snow Light Snow
6:56 PM 34.0 °F 28.8 °F 32.0 °F 92% 29.60 in 10.0 mi South 5.8 mph - 0.11 in Rain Light Rain
7:26 PM 33.8 °F 27.0 °F 32.0 °F 93% 29.61 in 10.0 mi SSE 8.1 mph - 0.00 in   Overcast
7:33 PM 33.8 °F 28.6 °F 32.0 °F 93% 29.62 in 10.0 mi SSE 5.8 mph - 0.00 in   Overcast
7:56 PM 34.0 °F 28.0 °F 32.0 °F 92% 29.65 in 10.0 mi ESE 6.9 mph - 0.00 in   Mostly Cloudy
8:56 PM 35.1 °F 29.3 °F 30.9 °F 85% 29.69 in 10.0 mi WSW 6.9 mph - N/A   Mostly Cloudy
9:56 PM 35.1 °F 25.9 °F 26.1 °F 70% 29.74 in 10.0 mi WNW 13.8 mph 24.2 mph 0.01 in   Clear
10:56 PM 32.0 °F 26.4 °F 21.9 °F 66% 29.80 in 10.0 mi WNW 5.8 mph - N/A   Clear
11:56 PM 28.9 °F - 21.0 °F 72% 29.86 in 10.0 mi Calm Calm - N/A   Clear